EUTELSAT 3B

Last updated on Sat Apr 13 2024 01:02:38 GMT+0100 (British Summer Time)

1 39773U 14030A 24103.37818049 .00000011 00000+0 00000+0 0 9997 2 39773 0.0667 20.3108 0001506 182.4701 137.5048 1.00272264 36088
UTC large
Height (km)
Speed (km/s)
/
Latitude / Longitude
Inclination (degrees)
Orbital Period (minutes)
Azimuth
Elevation
Range (km)
Doppler Factor

Next 0 passes for location: London (51.5072 / 0.1276)

Sorry there are no passes over London.